Temperature
8 8 8 7 7 7 7 7 7 6 6 6 6 6 6 6 6 6 6 6 5 5 5 5 5 5 4 4 4 4 4 4 4 4 4 4 4 4
7 7 7 7 7 7 7 6 6 6 5 5 5 5 5 5 5 5 5 5 5 5 5 4 4 4 4 4 4 4 4 4 3 3 3 3 3 3
7 7 7 6 6 6 6 6 6 5 5 5 5 5 5 5 5 5 5 5 4 4 4 4 4 4 4 3 3 3 3 3 3 3 3 3 3 3
6 6 6 6 6 6 6 5 5 5 5 5 5 4 4 4 4 4 4 4 4 4 4 4 3 3 3 3 3 3 3 3 2 2 2 2 2 2
6 6 6 5 5 5 5 5 5 5 4 4 4 4 4 3 3 3 3 3 3 3 3 3 3 3 2 2 2 2 2 2 2 2 2 1 1 1
5 5 5 5 5 5 5 4 4 4 4 3 3 3 3 3 3 3 3 3 3 3 3 2 2 2 2 2 2 2 2 2 1 1 1 1 1 1
5 4 4 4 4 4 4 4 4 3 3 3 3 2 2 2 2 2 2 2 2 2 2 2 2 2 2 1 1 1 1 1 1 1 1 1 1 0
4 4 4 3 3 3 3 3 3 3 2 2 2 2 2 1 1 1 1 1 1 1 1 2 1 1 1 1 1 1 1 0 0 0 0 0 0 -0
3 3 3 3 3 3 3 2 2 2 2 2 1 1 1 1 1 0 0 0 0 0 0 1 1 1 0 0 0 0 0 -0 -0 -0 -1 -1 -0 -1
3 3 2 2 2 2 2 2 2 1 1 1 1 1 1 0 0 -0 -0 -0 -0 -0 -1 -0 0 0 0 -0 -0 -0 -1 -1 -1 -1 -1 -1 -1 -1
2 2 2 2 1 1 1 1 1 1 1 1 0 0 0 -0 -0 -0 -1 -1 -1 -1 -1 -2 -1 -1 -0 -0 -1 -1 -1 -1 -1 -2 -2 -2 -2 -2
1 1 1 1 1 1 1 0 0 0 0 0 0 0 -0 -0 -0 -1 -1 -2 -2 -2 -2 -2 -2 -2 -2 -1 -1 -1 -2 -2 -2 -2 -2 -2 -2 -2
1 1 0 0 0 0 -0 -0 -0 -0 -0 -1 -1 -1 -1 -1 -1 -1 -2 -2 -2 -3 -3 -3 -3 -3 -3 -3 -2 -2 -2 -2 -2 -2 -3 -3 -3 -3
0 -0 -0 -0 -0 -1 -1 -1 -1 -1 -1 -1 -1 -1 -1 -1 -2 -2 -2 -2 -3 -3 -3 -3 -4 -4 -4 -4 -3 -3 -3 -3 -3 -3 -3 -3 -3 -4
-1 -1 -1 -1 -1 -1 -1 -1 -1 -2 -2 -2 -2 -2 -2 -2 -2 -2 -3 -3 -3 -3 -3 -4 -4 -4 -4 -4 -4 -4 -4 -3 -4 -4 -4 -4 -4 -4
-2 -2 -2 -2 -2 -2 -2 -2 -2 -2 -3 -3 -3 -3 -3 -3 -3 -3 -3 -3 -3 -3 -4 -4 -4 -4 -4 -4 -4 -4 -4 -4 -4 -4 -4 -4 -4 -5
-2 -2 -2 -2 -2 -2 -2 -3 -3 -3 -3 -3 -3 -3 -3 -4 -4 -4 -4 -4 -4 -4 -4 -4 -4 -4 -4 -5 -4 -4 -5 -5 -5 -5 -5 -5 -4 -5
-3 -3 -3 -3 -3 -3 -3 -3 -3 -4 -4 -4 -4 -4 -4 -4 -4 -4 -5 -5 -5 -5 -5 -5 -5 -4 -4 -4 -5 -5 -5 -5 -5 -5 -5 -5 -5 -5
-3 -3 -4 -4 -4 -4 -4 -4 -4 -4 -4 -5 -5 -5 -5 -5 -5 -5 -5 -5 -5 -6 -5 -5 -5 -5 -6 -6 -5 -5 -6 -6 -6 -6 -6 -6 -6 -5
-4 -4 -4 -4 -4 -4 -5 -5 -5 -5 -5 -5 -5 -6 -6 -6 -6 -6 -6 -6 -6 -6 -6 -6 -6 -6 -6 -7 -6 -6 -6 -6 -6 -6 -6 -6 -6 -6
-4 -5 -5 -5 -5 -5 -5 -5 -5 -5 -6 -6 -6 -6 -6 -6 -6 -6 -6 -6 -6 -6 -6 -6 -6 -6 -7 -7 -6 -6 -6 -6 -7 -7 -7 -7 -7 -6
-5 -5 -5 -5 -5 -6 -6 -6 -6 -6 -6 -6 -6 -7 -7 -7 -7 -6 -6 -6 -6 -7 -7 -7 -7 -7 -7 -7 -7 -7 -6 -6 -6 -6 -7 -7 -8 -8
-6 -6 -6 -6 -6 -6 -6 -6 -6 -7 -7 -7 -7 -7 -7 -7 -7 -7 -7 -7 -7 -7 -7 -7 -7 -7 -7 -7 -7 -7 -7 -7 -6 -6 -6 -7 -7 -7
Wind_Speed
3 3 2 1 1 1 1 2 2 3 3 2 1 1 2 2 5 6 6 8 9 10 10 10 11 11 11 11 12 12 13 13 14 14 15 16 16 15
3 3 2 1 1 1 1 1 1 2 3 2 2 2 2 4 6 6 6 9 10 10 10 10 11 11 11 11 11 11 12 13 13 14 15 15 16 16
3 3 3 2 1 1 1 1 1 2 4 3 2 2 3 3 5 6 7 7 8 9 10 10 10 10 10 10 11 11 12 12 12 13 13 14 14 15
4 4 3 2 2 1 1 1 1 2 3 5 4 3 3 3 4 5 6 7 8 9 10 9 9 10 10 10 11 11 11 12 12 12 13 13 14 14
4 4 3 3 2 2 1 2 2 2 2 3 4 3 3 3 4 4 5 6 7 8 9 9 10 10 10 11 10 10 10 11 11 12 12 13 13 13
3 3 3 3 3 2 2 2 1 1 1 2 3 3 3 3 3 4 5 4 5 7 8 9 10 11 10 10 10 10 10 11 11 12 12 12 12 12
3 3 2 2 2 2 2 2 1 1 2 2 4 4 3 3 3 3 5 5 5 3 4 6 8 7 8 9 9 10 11 11 12 12 12 12 12 12
3 2 2 2 2 1 2 2 2 2 3 3 3 4 5 4 4 4 4 5 5 3 5 6 5 5 7 7 10 12 12 12 12 12 12 12 13 13
3 3 2 2 1 1 1 1 2 3 4 4 4 4 4 4 4 4 4 4 5 5 5 6 4 5 6 9 12 11 11 11 12 13 13 13 13 13
2 3 3 2 2 1 1 1 1 2 4 3 3 4 4 4 4 4 4 5 4 3 3 4 4 4 6 8 10 9 10 12 13 13 13 13 13 12
2 1 2 2 2 1 1 1 2 3 4 4 5 5 6 7 6 3 3 4 5 4 2 2 3 5 5 4 7 9 11 12 13 14 14 13 12 11
1 1 1 1 2 2 1 2 3 3 2 3 4 5 5 5 6 3 3 4 4 3 1 2 3 4 4 3 4 7 9 12 14 14 14 13 12 9
1 1 0 1 2 3 2 2 3 3 2 2 2 3 3 3 3 3 3 3 4 4 3 3 3 3 3 5 4 4 6 7 9 10 12 13 12 10
1 0 0 1 3 3 3 3 3 3 1 2 2 3 3 3 3 4 5 4 4 5 5 4 3 4 5 6 5 4 5 6 6 6 8 11 11 12
0 1 2 2 3 2 2 3 3 2 1 2 2 3 3 3 3 4 4 4 4 5 5 5 4 4 4 5 5 5 5 5 5 5 6 6 6 6
1 1 2 3 2 2 2 2 2 1 1 1 2 2 3 3 3 3 3 4 3 3 4 5 5 4 5 5 5 6 5 4 5 6 6 6 6 6
1 1 1 1 1 1 1 1 1 2 2 2 2 3 3 3 3 3 3 3 3 4 4 4 6 5 5 4 5 5 5 5 5 5 6 6 6 5
1 0 0 1 1 1 1 1 1 1 1 2 2 2 3 3 4 3 3 3 3 4 4 4 5 5 3 3 4 4 4 4 5 5 5 6 7 6
1 0 1 1 1 1 1 2 2 2 2 2 2 3 3 3 3 4 4 3 4 4 4 3 3 3 5 6 4 3 3 5 5 6 5 5 6 7
1 1 1 1 1 1 1 2 2 2 2 2 2 2 3 3 3 4 4 4 4 4 4 3 3 3 4 5 5 5 7 5 5 6 6 5 6 9
1 1 1 1 2 2 2 2 2 2 2 2 2 2 2 3 3 4 4 5 5 4 5 5 5 7 4 3 4 4 5 8 7 5 5 6 6 5
1 1 1 2 2 2 2 2 2 2 3 2 2 3 3 3 4 4 4 4 4 4 5 5 5 4 3 4 5 6 6 7 9 10 8 7 4 4
2 2 2 2 2 2 2 2 3 3 3 3 3 3 3 3 3 3 4 3 4 4 4 4 4 3 4 4 5 5 7 7 6 6 6 9 11 12
Wind_Direction
177 175 187 203 193 174 175 188 198 251 265 254 265 295 359 326 308 307 304 305 302 302 301 302 301 303 304 304 306 308 310 312 311 307 306 305 305 305
166 160 173 191 186 179 192 231 211 224 254 261 263 292 322 318 305 309 302 301 296 298 301 302 304 305 305 305 307 308 309 311 311 307 304 305 305 304
170 167 177 181 181 192 210 229 244 231 258 284 296 305 306 304 317 313 307 304 299 298 302 306 307 308 309 309 310 310 311 311 311 311 311 311 311 308
175 171 184 184 186 193 196 220 242 238 245 275 294 306 303 302 303 310 317 314 309 301 305 307 306 306 308 310 310 311 313 313 312 313 313 314 314 312
174 177 186 183 200 198 194 220 248 263 253 262 281 294 298 310 311 313 317 316 316 314 313 310 309 308 308 307 311 314 315 315 315 315 316 315 316 315
170 178 185 190 197 198 207 217 245 260 256 262 276 288 297 304 310 309 313 311 314 324 319 317 315 311 306 304 308 312 315 315 316 316 316 314 314 313
172 180 189 189 200 218 228 215 216 246 257 264 274 288 294 305 303 301 304 310 309 318 318 315 316 316 314 309 308 310 315 317 317 318 318 318 316 312
168 172 177 178 194 233 256 255 239 232 240 253 274 278 287 294 299 301 305 316 309 321 319 305 308 300 312 318 317 315 316 318 319 319 318 318 317 315
168 173 186 190 183 200 249 306 304 289 270 256 257 269 282 289 292 292 292 295 289 301 313 298 300 298 311 314 317 319 318 321 322 320 317 316 314 313
160 171 177 184 202 202 202 277 281 293 287 273 245 260 269 279 269 274 281 292 287 295 310 292 302 300 310 312 312 320 328 329 326 325 323 320 318 316
130 141 153 168 216 241 212 257 282 291 303 298 294 297 304 310 312 311 306 307 305 305 301 294 305 312 305 297 318 329 330 328 328 329 329 326 325 324
116 129 185 216 253 275 239 236 264 278 297 312 313 316 318 320 322 312 285 289 300 301 313 322 311 326 313 295 311 329 329 327 329 330 330 329 329 332
141 140 188 294 305 299 296 265 272 292 298 300 301 306 316 321 325 318 306 285 283 282 305 323 310 313 296 301 306 310 321 325 328 327 328 328 327 329
159 151 270 310 316 318 322 309 311 326 319 312 312 318 320 319 314 314 305 295 282 278 290 299 290 296 300 299 301 309 314 317 322 322 323 326 327 326
38 320 318 324 337 340 329 323 339 345 319 308 306 307 309 308 316 318 321 313 309 304 300 295 289 291 287 287 294 301 310 312 317 322 323 321 320 323
39 7 353 348 351 345 342 350 358 326 315 297 304 309 315 318 317 315 316 323 324 319 314 310 302 289 288 286 287 294 298 300 315 318 317 315 315 315
29 37 26 353 349 357 1 352 355 350 340 323 315 319 321 320 318 321 319 324 320 319 324 328 327 304 278 277 286 287 294 300 304 313 320 317 310 311
40 108 271 274 273 290 309 323 331 328 317 313 316 316 317 318 320 324 324 323 318 316 317 321 328 329 320 297 261 277 293 298 309 316 316 312 311 312
64 342 269 266 275 281 286 293 302 309 310 310 315 315 315 316 319 320 321 320 319 316 312 311 322 332 327 316 303 293 306 312 314 313 310 306 302 306
33 343 313 309 302 292 287 288 296 306 311 309 304 305 307 310 312 313 313 313 313 314 313 313 314 313 301 294 295 300 308 302 301 305 308 303 295 299
353 339 321 309 306 300 293 291 293 292 294 294 293 295 298 303 303 306 306 312 314 310 309 308 301 313 302 297 299 301 303 312 308 301 304 308 310 309
332 322 314 306 301 295 292 293 289 285 286 285 287 289 289 291 293 298 301 305 306 304 302 305 310 318 318 312 308 307 311 316 321 319 308 293 295 302
318 310 304 301 298 298 291 285 281 280 280 277 277 281 285 288 288 291 296 300 304 308 313 316 322 321 312 303 304 306 308 314 320 324 314 311 305 298
Height
1512 1513 1514 1515 1516 1517 1517 1518 1518 1515 1514 1514 1514 1514 1513 1512 1510 1509 1507 1505 1504 1502 1500 1498 1497 1495 1493 1491 1490 1488 1486 1484 1483 1481 1479 1478 1476 1475
1508 1509 1510 1511 1512 1513 1513 1514 1513 1513 1511 1510 1510 1510 1508 1507 1506 1504 1502 1501 1499 1497 1496 1494 1492 1490 1488 1486 1484 1483 1481 1479 1477 1476 1474 1472 1471 1469
1504 1505 1506 1507 1508 1509 1509 1509 1509 1509 1508 1506 1506 1505 1504 1502 1501 1500 1498 1496 1494 1493 1491 1489 1487 1485 1483 1481 1479 1477 1475 1473 1471 1470 1468 1466 1465 1463
1499 1501 1502 1503 1504 1504 1505 1505 1505 1505 1504 1502 1501 1500 1499 1498 1496 1495 1493 1491 1490 1488 1486 1484 1482 1481 1478 1476 1474 1472 1470 1468 1466 1464 1463 1461 1459 1458
1495 1496 1497 1499 1500 1500 1500 1501 1501 1501 1500 1499 1497 1496 1495 1494 1492 1490 1489 1487 1485 1483 1481 1480 1478 1475 1473 1471 1469 1467 1465 1463 1461 1459 1457 1455 1454 1452
1491 1492 1494 1495 1495 1496 1496 1496 1496 1496 1495 1494 1493 1492 1490 1489 1488 1486 1483 1482 1480 1479 1476 1475 1473 1470 1468 1466 1464 1462 1460 1457 1455 1453 1452 1450 1448 1447
1487 1488 1490 1491 1492 1492 1492 1492 1492 1491 1491 1490 1489 1487 1486 1485 1483 1481 1479 1477 1475 1474 1471 1470 1468 1465 1463 1461 1459 1457 1455 1452 1450 1448 1446 1445 1443 1441
1483 1484 1486 1487 1487 1488 1488 1487 1488 1487 1486 1486 1484 1483 1482 1481 1480 1478 1475 1472 1470 1469 1467 1465 1463 1461 1459 1456 1454 1452 1450 1447 1445 1443 1441 1439 1437 1436
1479 1480 1481 1482 1483 1483 1483 1483 1483 1483 1483 1482 1481 1479 1478 1477 1476 1473 1471 1469 1467 1465 1462 1459 1458 1456 1454 1451 1450 1447 1445 1442 1440 1438 1436 1434 1432 1430
1476 1477 1478 1478 1479 1479 1479 1479 1479 1479 1479 1478 1477 1475 1475 1474 1472 1470 1468 1465 1463 1461 1459 1455 1453 1451 1449 1447 1446 1443 1440 1438 1435 1433 1430 1429 1427 1425
1472 1473 1474 1475 1475 1475 1475 1475 1475 1475 1474 1474 1473 1472 1471 1469 1468 1466 1464 1461 1458 1456 1455 1452 1449 1446 1444 1443 1441 1439 1437 1434 1431 1429 1426 1424 1422 1420
1469 1469 1470 1471 1472 1472 1472 1472 1471 1471 1470 1469 1469 1468 1466 1465 1464 1462 1460 1458 1455 1452 1451 1449 1446 1444 1439 1438 1437 1435 1433 1430 1428 1425 1422 1420 1418 1416
1465 1466 1467 1468 1468 1468 1469 1468 1468 1467 1466 1465 1464 1463 1462 1461 1460 1458 1457 1455 1452 1450 1449 1447 1444 1441 1439 1435 1433 1431 1429 1426 1424 1421 1418 1416 1414 1412
1462 1463 1464 1464 1465 1464 1464 1464 1464 1463 1462 1461 1460 1459 1458 1457 1455 1454 1452 1451 1449 1447 1445 1444 1441 1439 1436 1432 1429 1427 1426 1423 1420 1418 1415 1413 1411 1409
1460 1460 1461 1461 1461 1460 1460 1460 1460 1459 1458 1457 1456 1455 1454 1453 1451 1450 1448 1447 1445 1443 1442 1440 1438 1436 1434 1430 1427 1424 1421 1419 1417 1415 1412 1410 1407 1405
1457 1457 1457 1457 1457 1457 1457 1457 1456 1456 1455 1453 1452 1451 1450 1449 1447 1446 1444 1442 1441 1439 1438 1436 1434 1433 1430 1427 1425 1421 1419 1417 1414 1412 1409 1407 1405 1402
1454 1454 1454 1454 1454 1453 1453 1453 1453 1452 1451 1450 1449 1447 1446 1445 1444 1442 1441 1439 1437 1435 1434 1433 1431 1429 1427 1425 1421 1419 1416 1414 1412 1409 1406 1403 1401 1399
1451 1451 1450 1450 1450 1450 1450 1449 1449 1448 1448 1447 1446 1444 1443 1442 1440 1439 1438 1436 1434 1433 1431 1429 1427 1425 1423 1421 1420 1416 1413 1411 1409 1406 1403 1400 1397 1396
1448 1448 1447 1447 1447 1447 1447 1446 1446 1445 1444 1444 1443 1441 1440 1439 1438 1436 1435 1433 1432 1430 1428 1427 1424 1422 1419 1417 1415 1414 1411 1408 1406 1403 1401 1398 1395 1392
1445 1445 1445 1444 1444 1444 1443 1443 1442 1442 1441 1440 1439 1439 1438 1437 1435 1434 1432 1431 1429 1427 1426 1424 1422 1420 1418 1416 1413 1411 1409 1406 1403 1400 1398 1395 1393 1391
1443 1443 1442 1442 1441 1441 1440 1440 1439 1439 1438 1437 1436 1436 1435 1434 1432 1431 1430 1428 1427 1425 1423 1421 1420 1418 1416 1414 1411 1408 1407 1405 1402 1399 1396 1392 1389 1386
1440 1440 1439 1439 1438 1438 1437 1436 1436 1435 1435 1434 1433 1432 1432 1431 1429 1428 1427 1425 1424 1422 1420 1419 1417 1415 1414 1412 1409 1406 1404 1402 1400 1398 1395 1392 1389 1385
1438 1437 1437 1436 1435 1435 1434 1433 1433 1432 1431 1431 1430 1429 1428 1427 1426 1425 1424 1423 1421 1419 1418 1416 1414 1412 1411 1409 1407 1404 1402 1399 1397 1394 1392 1390 1388 1385